owner,sensor,date,latitude,longitude,vertical_datum,sea_water_practical_salinity,qcFlag 
SCCF RECON,ioos:station:SCCF:51:1,2011-07-01T00:00:00Z,26.5545,-82.1715,1.38,36.81,1111122 
SCCF RECON,ioos:station:SCCF:51:1,2011-07-01T01:00:00Z,26.5545,-82.1715,1.383,37.02,1111122 
SCCF RECON,ioos:station:SCCF:51:1,2011-07-01T02:00:00Z,26.5545,-82.1715,1.455,36.92,1111122 
SCCF RECON,ioos:station:SCCF:51:1,2011-07-01T03:00:00Z,26.5545,-82.1715,1.579,36.89,1111122 
SCCF RECON,ioos:station:SCCF:51:1,2011-07-01T04:00:00Z,26.5545,-82.1715,1.7,36.73,1111122 
SCCF RECON,ioos:station:SCCF:51:1,2011-07-01T05:00:00Z,26.5545,-82.1715,1.806,36.72,1111122 
SCCF RECON,ioos:station:SCCF:51:1,2011-07-01T06:00:00Z,26.5545,-82.1715,1.864,36.75,1111122 
SCCF RECON,ioos:station:SCCF:51:1,2011-07-01T07:00:00Z,26.5545,-82.1715,1.89,36.76,1111122 
SCCF RECON,ioos:station:SCCF:51:1,2011-07-01T08:00:00Z,26.5545,-82.1715,1.85,36.78,1111122 
SCCF RECON,ioos:station:SCCF:51:1,2011-07-01T09:00:00Z,26.5545,-82.1715,1.799,36.83,1111122 
SCCF RECON,ioos:station:SCCF:51:1,2011-07-01T10:00:00Z,26.5545,-82.1715,1.772,36.85,1111122 
SCCF RECON,ioos:station:SCCF:51:1,2011-07-01T11:00:00Z,26.5545,-82.1715,1.799,36.83,1111122 
SCCF RECON,ioos:station:SCCF:51:1,2011-07-01T12:00:00Z,26.5545,-82.1715,1.81,36.84,1111122 
SCCF RECON,ioos:station:SCCF:51:1,2011-07-01T13:00:00Z,26.5545,-82.1715,1.871,36.8,1111122 
SCCF RECON,ioos:station:SCCF:51:1,2011-07-01T14:00:00Z,26.5545,-82.1715,1.954,36.77,1111122 
SCCF RECON,ioos:station:SCCF:51:1,2011-07-01T15:00:00Z,26.5545,-82.1715,2.059,36.72,1111122 
SCCF RECON,ioos:station:SCCF:51:1,2011-07-01T16:00:00Z,26.5545,-82.1715,2.156,36.7,1111122 
SCCF RECON,ioos:station:SCCF:51:1,2011-07-01T17:00:00Z,26.5545,-82.1715,2.208,36.7,1111122 
SCCF RECON,ioos:station:SCCF:51:1,2011-07-01T18:00:00Z,26.5545,-82.1715,2.171,36.71,1111122 
SCCF RECON,ioos:station:SCCF:51:1,2011-07-01T19:00:00Z,26.5545,-82.1715,2.081,36.79,1111122 
SCCF RECON,ioos:station:SCCF:51:1,2011-07-01T20:00:00Z,26.5545,-82.1715,1.962,36.87,1111122 
SCCF RECON,ioos:station:SCCF:51:1,2011-07-01T21:00:00Z,26.5545,-82.1715,1.822,36.99,1111122 
SCCF RECON,ioos:station:SCCF:51:1,2011-07-01T22:00:00Z,26.5545,-82.1715,1.67,37.11,1111122 
SCCF RECON,ioos:station:SCCF:51:1,2011-07-01T23:00:00Z,26.5545,-82.1715,1.55,37.01,1111122 
SCCF RECON,ioos:station:SCCF:51:1,2011-07-02T00:00:00Z,26.5545,-82.1715,1.44,37.16,1111122 
SCCF RECON,ioos:station:SCCF:51:1,2011-07-02T01:00:00Z,26.5545,-82.1715,1.381,37.25,1111122 
SCCF RECON,ioos:station:SCCF:51:1,2011-07-02T02:00:00Z,26.5545,-82.1715,1.397,37.03,1111122 
SCCF RECON,ioos:station:SCCF:51:1,2011-07-02T03:00:00Z,26.5545,-82.1715,1.507,37.12,1111122 
SCCF RECON,ioos:station:SCCF:51:1,2011-07-02T04:00:00Z,26.5545,-82.1715,1.64,36.84,1111122 
SCCF RECON,ioos:station:SCCF:51:1,2011-07-02T05:00:00Z,26.5545,-82.1715,1.78,36.76,1111122 
SCCF RECON,ioos:station:SCCF:51:1,2011-07-02T06:00:00Z,26.5545,-82.1715,1.872,36.81,1111122 
SCCF RECON,ioos:station:SCCF:51:1,2011-07-02T07:00:00Z,26.5545,-82.1715,1.919,36.82,1111122 
SCCF RECON,ioos:station:SCCF:51:1,2011-07-02T08:00:00Z,26.5545,-82.1715,1.894,36.77,1111122 
SCCF RECON,ioos:station:SCCF:51:1,2011-07-02T09:00:00Z,26.5545,-82.1715,1.845,36.95,1111122 
SCCF RECON,ioos:station:SCCF:51:1,2011-07-02T10:00:00Z,26.5545,-82.1715,1.82,37.0,1111122 
SCCF RECON,ioos:station:SCCF:51:1,2011-07-02T11:00:00Z,26.5545,-82.1715,1.798,36.91,1111122 
SCCF RECON,ioos:station:SCCF:51:1,2011-07-02T12:00:00Z,26.5545,-82.1715,1.82,36.73,1111122 
SCCF RECON,ioos:station:SCCF:51:1,2011-07-02T13:00:00Z,26.5545,-82.1715,1.833,36.72,1111122 
SCCF RECON,ioos:station:SCCF:51:1,2011-07-02T14:00:00Z,26.5545,-82.1715,1.9,36.68,1111122 
SCCF RECON,ioos:station:SCCF:51:1,2011-07-02T15:00:00Z,26.5545,-82.1715,1.965,36.46,1111122 
SCCF RECON,ioos:station:SCCF:51:1,2011-07-02T16:00:00Z,26.5545,-82.1715,2.06,36.49,1111122 
SCCF RECON,ioos:station:SCCF:51:1,2011-07-02T17:00:00Z,26.5545,-82.1715,2.141,36.51,1111122 
SCCF RECON,ioos:station:SCCF:51:1,2011-07-02T18:00:00Z,26.5545,-82.1715,2.155,36.52,1111122 
SCCF RECON,ioos:station:SCCF:51:1,2011-07-02T19:00:00Z,26.5545,-82.1715,2.111,36.52,1111122 
SCCF RECON,ioos:station:SCCF:51:1,2011-07-02T20:00:00Z,26.5545,-82.1715,2.018,36.46,1111122 
SCCF RECON,ioos:station:SCCF:51:1,2011-07-02T21:00:00Z,26.5545,-82.1715,1.887,36.62,1111122 
SCCF RECON,ioos:station:SCCF:51:1,2011-07-02T22:00:00Z,26.5545,-82.1715,1.741,36.67,1111122 
SCCF RECON,ioos:station:SCCF:51:1,2011-07-02T23:00:00Z,26.5545,-82.1715,1.593,36.61,1111122 
SCCF RECON,ioos:station:SCCF:51:1,2011-07-03T00:00:00Z,26.5545,-82.1715,1.468,36.52,1111122 
SCCF RECON,ioos:station:SCCF:51:1,2011-07-03T01:00:00Z,26.5545,-82.1715,1.377,36.44,1111122 
SCCF RECON,ioos:station:SCCF:51:1,2011-07-03T02:00:00Z,26.5545,-82.1715,1.346,36.5,1111122 
SCCF RECON,ioos:station:SCCF:51:1,2011-07-03T03:00:00Z,26.5545,-82.1715,1.43,36.54,1111122 
SCCF RECON,ioos:station:SCCF:51:1,2011-07-03T04:00:00Z,26.5545,-82.1715,1.564,36.61,1111122 
SCCF RECON,ioos:station:SCCF:51:1,2011-07-03T05:00:00Z,26.5545,-82.1715,1.71,36.47,1111122 
SCCF RECON,ioos:station:SCCF:51:1,2011-07-03T06:00:00Z,26.5545,-82.1715,1.81,36.49,1111122 
SCCF RECON,ioos:station:SCCF:51:1,2011-07-03T07:00:00Z,26.5545,-82.1715,1.891,36.47,1111122 
SCCF RECON,ioos:station:SCCF:51:1,2011-07-03T08:00:00Z,26.5545,-82.1715,1.923,36.49,1111122 
SCCF RECON,ioos:station:SCCF:51:1,2011-07-03T09:00:00Z,26.5545,-82.1715,1.9,36.51,1111122 
SCCF RECON,ioos:station:SCCF:51:1,2011-07-03T10:00:00Z,26.5545,-82.1715,1.85,36.51,1111122 
SCCF RECON,ioos:station:SCCF:51:1,2011-07-03T11:00:00Z,26.5545,-82.1715,1.801,36.48,1111122 
SCCF RECON,ioos:station:SCCF:51:1,2011-07-03T12:00:00Z,26.5545,-82.1715,1.777,36.43,1111122 
SCCF RECON,ioos:station:SCCF:51:1,2011-07-03T13:00:00Z,26.5545,-82.1715,1.781,36.42,1111122 
SCCF RECON,ioos:station:SCCF:51:1,2011-07-03T14:00:00Z,26.5545,-82.1715,1.824,36.48,1111122 
SCCF RECON,ioos:station:SCCF:51:1,2011-07-03T15:00:00Z,26.5545,-82.1715,1.903,36.48,1111122 
SCCF RECON,ioos:station:SCCF:51:1,2011-07-03T16:00:00Z,26.5545,-82.1715,2.014,36.55,1111122 
SCCF RECON,ioos:station:SCCF:51:1,2011-07-03T17:00:00Z,26.5545,-82.1715,2.12,36.59,1111122 
SCCF RECON,ioos:station:SCCF:51:1,2011-07-03T18:00:00Z,26.5545,-82.1715,2.196,36.6,1111122 
SCCF RECON,ioos:station:SCCF:51:1,2011-07-03T19:00:00Z,26.5545,-82.1715,2.201,36.59,1111122 
SCCF RECON,ioos:station:SCCF:51:1,2011-07-03T20:00:00Z,26.5545,-82.1715,2.127,36.58,1111122 
SCCF RECON,ioos:station:SCCF:51:1,2011-07-03T21:00:00Z,26.5545,-82.1715,2.021,36.53,1111122 
SCCF RECON,ioos:station:SCCF:51:1,2011-07-03T22:00:00Z,26.5545,-82.1715,1.904,36.52,1111122 
SCCF RECON,ioos:station:SCCF:51:1,2011-07-03T23:00:00Z,26.5545,-82.1715,1.75,36.55,1111122 
SCCF RECON,ioos:station:SCCF:51:1,2011-07-04T00:00:00Z,26.5545,-82.1715,1.62,36.5,1111122 
SCCF RECON,ioos:station:SCCF:51:1,2011-07-04T01:00:00Z,26.5545,-82.1715,1.499,36.52,1111122 
SCCF RECON,ioos:station:SCCF:51:1,2011-07-04T02:00:00Z,26.5545,-82.1715,1.41,36.56,1111122 
SCCF RECON,ioos:station:SCCF:51:1,2011-07-04T03:00:00Z,26.5545,-82.1715,1.412,36.67,1111122 
SCCF RECON,ioos:station:SCCF:51:1,2011-07-04T04:00:00Z,26.5545,-82.1715,1.517,36.62,1111122 
SCCF RECON,ioos:station:SCCF:51:1,2011-07-04T05:00:00Z,26.5545,-82.1715,1.648,36.42,1111122 
SCCF RECON,ioos:station:SCCF:51:1,2011-07-04T06:00:00Z,26.5545,-82.1715,1.79,36.53,1111122 
SCCF RECON,ioos:station:SCCF:51:1,2011-07-04T07:00:00Z,26.5545,-82.1715,1.9,36.46,1111122 
SCCF RECON,ioos:station:SCCF:51:1,2011-07-04T08:00:00Z,26.5545,-82.1715,1.96,36.43,1111122 
SCCF RECON,ioos:station:SCCF:51:1,2011-07-04T09:00:00Z,26.5545,-82.1715,1.97,36.48,1111122 
SCCF RECON,ioos:station:SCCF:51:1,2011-07-04T10:00:00Z,26.5545,-82.1715,1.917,36.45,1111122 
SCCF RECON,ioos:station:SCCF:51:1,2011-07-04T11:00:00Z,26.5545,-82.1715,1.86,36.46,1111122 
SCCF RECON,ioos:station:SCCF:51:1,2011-07-04T12:00:00Z,26.5545,-82.1715,1.799,36.46,1111122 
SCCF RECON,ioos:station:SCCF:51:1,2011-07-04T13:00:00Z,26.5545,-82.1715,1.754,36.52,1111122 
SCCF RECON,ioos:station:SCCF:51:1,2011-07-04T14:00:00Z,26.5545,-82.1715,1.78,36.52,1111122 
SCCF RECON,ioos:station:SCCF:51:1,2011-07-04T15:00:00Z,26.5545,-82.1715,1.838,36.47,1111122 
SCCF RECON,ioos:station:SCCF:51:1,2011-07-04T16:00:00Z,26.5545,-82.1715,1.916,36.44,1111122 
SCCF RECON,ioos:station:SCCF:51:1,2011-07-04T17:00:00Z,26.5545,-82.1715,2.02,36.54,1111122 
SCCF RECON,ioos:station:SCCF:51:1,2011-07-04T18:00:00Z,26.5545,-82.1715,2.118,36.54,1111122 
SCCF RECON,ioos:station:SCCF:51:1,2011-07-04T19:00:00Z,26.5545,-82.1715,2.158,36.54,1111122 
SCCF RECON,ioos:station:SCCF:51:1,2011-07-04T20:00:00Z,26.5545,-82.1715,2.112,36.54,1111122 
SCCF RECON,ioos:station:SCCF:51:1,2011-07-04T21:00:00Z,26.5545,-82.1715,2.071,36.5,1111122 
SCCF RECON,ioos:station:SCCF:51:1,2011-07-04T22:00:00Z,26.5545,-82.1715,1.969,36.35,1111122 
SCCF RECON,ioos:station:SCCF:51:1,2011-07-04T23:00:00Z,26.5545,-82.1715,1.841,36.14,1111122 
SCCF RECON,ioos:station:SCCF:51:1,2011-07-05T00:00:00Z,26.5545,-82.1715,1.71,35.96,1111122 
SCCF RECON,ioos:station:SCCF:51:1,2011-07-05T01:00:00Z,26.5545,-82.1715,1.587,35.97,1111122 
SCCF RECON,ioos:station:SCCF:51:1,2011-07-05T02:00:00Z,26.5545,-82.1715,1.49,36.05,1111122 
SCCF RECON,ioos:station:SCCF:51:1,2011-07-05T03:00:00Z,26.5545,-82.1715,1.453,36.06,1111122 
SCCF RECON,ioos:station:SCCF:51:1,2011-07-05T04:00:00Z,26.5545,-82.1715,1.503,36.22,1111122 
SCCF RECON,ioos:station:SCCF:51:1,2011-07-05T05:00:00Z,26.5545,-82.1715,1.61,36.01,1111122 
SCCF RECON,ioos:station:SCCF:51:1,2011-07-05T06:00:00Z,26.5545,-82.1715,1.739,36.25,1111122 
SCCF RECON,ioos:station:SCCF:51:1,2011-07-05T07:00:00Z,26.5545,-82.1715,1.87,36.36,1111122 
SCCF RECON,ioos:station:SCCF:51:1,2011-07-05T08:00:00Z,26.5545,-82.1715,1.954,36.1,1111122 
SCCF RECON,ioos:station:SCCF:51:1,2011-07-05T09:00:00Z,26.5545,-82.1715,1.981,36.21,1111122 
SCCF RECON,ioos:station:SCCF:51:1,2011-07-05T10:00:00Z,26.5545,-82.1715,1.954,36.4,1111122 
SCCF RECON,ioos:station:SCCF:51:1,2011-07-05T11:00:00Z,26.5545,-82.1715,1.872,36.05,1111122 
SCCF RECON,ioos:station:SCCF:51:1,2011-07-05T12:00:00Z,26.5545,-82.1715,1.8,35.91,1111122 
SCCF RECON,ioos:station:SCCF:51:1,2011-07-05T13:00:00Z,26.5545,-82.1715,1.733,36.01,1111122 
SCCF RECON,ioos:station:SCCF:51:1,2011-07-05T14:00:00Z,26.5545,-82.1715,1.695,36.14,1111122 
SCCF RECON,ioos:station:SCCF:51:1,2011-07-05T15:00:00Z,26.5545,-82.1715,1.713,36.02,1111122 
SCCF RECON,ioos:station:SCCF:51:1,2011-07-05T16:00:00Z,26.5545,-82.1715,1.784,35.9,1111122 
SCCF RECON,ioos:station:SCCF:51:1,2011-07-05T17:00:00Z,26.5545,-82.1715,1.879,36.33,1111122 
SCCF RECON,ioos:station:SCCF:51:1,2011-07-05T18:00:00Z,26.5545,-82.1715,1.985,36.47,1111122 
SCCF RECON,ioos:station:SCCF:51:1,2011-07-05T19:00:00Z,26.5545,-82.1715,2.063,36.48,1111122 
SCCF RECON,ioos:station:SCCF:51:1,2011-07-05T20:00:00Z,26.5545,-82.1715,2.099,36.44,1111122 
SCCF RECON,ioos:station:SCCF:51:1,2011-07-05T21:00:00Z,26.5545,-82.1715,2.078,36.43,1111122 
SCCF RECON,ioos:station:SCCF:51:1,2011-07-05T22:00:00Z,26.5545,-82.1715,2.028,36.44,1111122 
SCCF RECON,ioos:station:SCCF:51:1,2011-07-05T23:00:00Z,26.5545,-82.1715,1.958,36.28,1111122 
SCCF RECON,ioos:station:SCCF:51:1,2011-07-06T00:00:00Z,26.5545,-82.1715,1.854,36.21,1111122 
SCCF RECON,ioos:station:SCCF:51:1,2011-07-06T01:00:00Z,26.5545,-82.1715,1.738,36.19,1111122 
SCCF RECON,ioos:station:SCCF:51:1,2011-07-06T02:00:00Z,26.5545,-82.1715,1.631,36.1,1111122 
SCCF RECON,ioos:station:SCCF:51:1,2011-07-06T03:00:00Z,26.5545,-82.1715,1.556,36.2,1111122 
SCCF RECON,ioos:station:SCCF:51:1,2011-07-06T04:00:00Z,26.5545,-82.1715,1.541,36.24,1111122 
SCCF RECON,ioos:station:SCCF:51:1,2011-07-06T05:00:00Z,26.5545,-82.1715,1.597,36.16,1111122 
SCCF RECON,ioos:station:SCCF:51:1,2011-07-06T06:00:00Z,26.5545,-82.1715,1.704,36.19,1111122 
SCCF RECON,ioos:station:SCCF:51:1,2011-07-06T07:00:00Z,26.5545,-82.1715,1.83,36.25,1111122 
SCCF RECON,ioos:station:SCCF:51:1,2011-07-06T08:00:00Z,26.5545,-82.1715,1.942,36.25,1111122 
SCCF RECON,ioos:station:SCCF:51:1,2011-07-06T09:00:00Z,26.5545,-82.1715,2.02,36.15,1111122 
SCCF RECON,ioos:station:SCCF:51:1,2011-07-06T10:00:00Z,26.5545,-82.1715,2.035,36.39,1111122 
SCCF RECON,ioos:station:SCCF:51:1,2011-07-06T11:00:00Z,26.5545,-82.1715,1.98,36.27,1111122 
SCCF RECON,ioos:station:SCCF:51:1,2011-07-06T12:00:00Z,26.5545,-82.1715,1.911,36.02,1111122 
SCCF RECON,ioos:station:SCCF:51:1,2011-07-06T13:00:00Z,26.5545,-82.1715,1.825,35.89,1111122 
SCCF RECON,ioos:station:SCCF:51:1,2011-07-06T14:00:00Z,26.5545,-82.1715,1.762,35.93,1111122 
SCCF RECON,ioos:station:SCCF:51:1,2011-07-06T15:00:00Z,26.5545,-82.1715,1.717,36.0,1111122 
SCCF RECON,ioos:station:SCCF:51:1,2011-07-06T16:00:00Z,26.5545,-82.1715,1.718,36.03,1111122 
SCCF RECON,ioos:station:SCCF:51:1,2011-07-06T17:00:00Z,26.5545,-82.1715,1.758,36.07,1111122 
SCCF RECON,ioos:station:SCCF:51:1,2011-07-06T18:00:00Z,26.5545,-82.1715,1.819,36.27,1111122 
SCCF RECON,ioos:station:SCCF:51:1,2011-07-06T19:00:00Z,26.5545,-82.1715,1.921,36.27,1111122 
SCCF RECON,ioos:station:SCCF:51:1,2011-07-06T20:00:00Z,26.5545,-82.1715,1.995,36.45,1111122 
SCCF RECON,ioos:station:SCCF:51:1,2011-07-06T21:00:00Z,26.5545,-82.1715,2.03,36.23,1111122 
SCCF RECON,ioos:station:SCCF:51:1,2011-07-06T22:00:00Z,26.5545,-82.1715,1.965,36.34,1111122 
SCCF RECON,ioos:station:SCCF:51:1,2011-07-06T23:00:00Z,26.5545,-82.1715,1.9,36.15,1111122 
SCCF RECON,ioos:station:SCCF:51:1,2011-07-07T00:00:00Z,26.5545,-82.1715,1.81,36.02,1111122 
SCCF RECON,ioos:station:SCCF:51:1,2011-07-07T01:00:00Z,26.5545,-82.1715,1.732,36.03,1111122 
SCCF RECON,ioos:station:SCCF:51:1,2011-07-07T02:00:00Z,26.5545,-82.1715,1.655,36.02,1111122 
SCCF RECON,ioos:station:SCCF:51:1,2011-07-07T03:00:00Z,26.5545,-82.1715,1.609,36.04,1111122 
SCCF RECON,ioos:station:SCCF:51:1,2011-07-07T04:00:00Z,26.5545,-82.1715,1.6,36.06,1111122 
SCCF RECON,ioos:station:SCCF:51:1,2011-07-07T05:00:00Z,26.5545,-82.1715,1.647,36.1,1111122 
SCCF RECON,ioos:station:SCCF:51:1,2011-07-07T06:00:00Z,26.5545,-82.1715,1.72,36.17,1111122 
SCCF RECON,ioos:station:SCCF:51:1,2011-07-07T07:00:00Z,26.5545,-82.1715,1.82,36.19,1111122 
SCCF RECON,ioos:station:SCCF:51:1,2011-07-07T08:00:00Z,26.5545,-82.1715,1.939,36.25,1111122 
SCCF RECON,ioos:station:SCCF:51:1,2011-07-07T09:00:00Z,26.5545,-82.1715,2.011,36.07,1111122 
SCCF RECON,ioos:station:SCCF:51:1,2011-07-07T10:00:00Z,26.5545,-82.1715,2.051,36.28,1111122 
SCCF RECON,ioos:station:SCCF:51:1,2011-07-07T11:00:00Z,26.5545,-82.1715,2.07,36.32,1111122 
SCCF RECON,ioos:station:SCCF:51:1,2011-07-07T12:00:00Z,26.5545,-82.1715,2.02,36.23,1111122 
SCCF RECON,ioos:station:SCCF:51:1,2011-07-07T13:00:00Z,26.5545,-82.1715,1.94,36.11,1111122 
SCCF RECON,ioos:station:SCCF:51:1,2011-07-07T14:00:00Z,26.5545,-82.1715,1.847,36.03,1111122 
SCCF RECON,ioos:station:SCCF:51:1,2011-07-07T15:00:00Z,26.5545,-82.1715,1.742,35.89,1111122 
SCCF RECON,ioos:station:SCCF:51:1,2011-07-07T16:00:00Z,26.5545,-82.1715,1.679,35.75,1111122 
SCCF RECON,ioos:station:SCCF:51:1,2011-07-07T17:00:00Z,26.5545,-82.1715,1.647,35.69,1111122 
SCCF RECON,ioos:station:SCCF:51:1,2011-07-07T18:00:00Z,26.5545,-82.1715,1.681,35.77,1111122 
SCCF RECON,ioos:station:SCCF:51:1,2011-07-07T19:00:00Z,26.5545,-82.1715,1.75,35.93,1111122 
SCCF RECON,ioos:station:SCCF:51:1,2011-07-07T20:00:00Z,26.5545,-82.1715,1.842,35.97,1111122 
SCCF RECON,ioos:station:SCCF:51:1,2011-07-07T21:00:00Z,26.5545,-82.1715,1.912,35.92,1111122 
SCCF RECON,ioos:station:SCCF:51:1,2011-07-07T22:00:00Z,26.5545,-82.1715,1.982,35.99,1111122 
SCCF RECON,ioos:station:SCCF:51:1,2011-07-07T23:00:00Z,26.5545,-82.1715,2.048,36.16,1111122 
SCCF RECON,ioos:station:SCCF:51:1,2011-07-08T00:00:00Z,26.5545,-82.1715,2.026,35.74,1111122 
SCCF RECON,ioos:station:SCCF:51:1,2011-07-08T01:00:00Z,26.5545,-82.1715,1.981,35.51,1111122 
SCCF RECON,ioos:station:SCCF:51:1,2011-07-08T02:00:00Z,26.5545,-82.1715,1.926,35.48,1111122 
SCCF RECON,ioos:station:SCCF:51:1,2011-07-08T03:00:00Z,26.5545,-82.1715,1.882,35.44,1111122 
SCCF RECON,ioos:station:SCCF:51:1,2011-07-08T04:00:00Z,26.5545,-82.1715,1.842,35.45,1111122 
SCCF RECON,ioos:station:SCCF:51:1,2011-07-08T05:00:00Z,26.5545,-82.1715,1.82,35.27,1111122 
SCCF RECON,ioos:station:SCCF:51:1,2011-07-08T06:00:00Z,26.5545,-82.1715,1.835,35.24,1111122 
SCCF RECON,ioos:station:SCCF:51:1,2011-07-08T07:00:00Z,26.5545,-82.1715,1.926,35.35,1111122 
SCCF RECON,ioos:station:SCCF:51:1,2011-07-08T08:00:00Z,26.5545,-82.1715,2.034,35.36,1111122 
SCCF RECON,ioos:station:SCCF:51:1,2011-07-08T09:00:00Z,26.5545,-82.1715,2.137,36.1,1111122 
SCCF RECON,ioos:station:SCCF:51:1,2011-07-08T10:00:00Z,26.5545,-82.1715,2.199,35.87,1111122 
SCCF RECON,ioos:station:SCCF:51:1,2011-07-08T11:00:00Z,26.5545,-82.1715,2.209,35.79,1111122 
SCCF RECON,ioos:station:SCCF:51:1,2011-07-08T12:00:00Z,26.5545,-82.1715,2.155,35.62,1111122 
SCCF RECON,ioos:station:SCCF:51:1,2011-07-08T13:00:00Z,26.5545,-82.1715,2.099,35.25,1111122 
SCCF RECON,ioos:station:SCCF:51:1,2011-07-08T14:00:00Z,26.5545,-82.1715,2.026,34.87,1111122 
SCCF RECON,ioos:station:SCCF:51:1,2011-07-08T15:00:00Z,26.5545,-82.1715,1.94,34.8,1111122 
SCCF RECON,ioos:station:SCCF:51:1,2011-07-08T16:00:00Z,26.5545,-82.1715,1.853,34.62,1111122 
SCCF RECON,ioos:station:SCCF:51:1,2011-07-08T17:00:00Z,26.5545,-82.1715,1.758,34.68,1111122 
SCCF RECON,ioos:station:SCCF:51:1,2011-07-08T18:00:00Z,26.5545,-82.1715,1.676,34.62,1111122 
SCCF RECON,ioos:station:SCCF:51:1,2011-07-08T19:00:00Z,26.5545,-82.1715,1.645,34.62,1111122 
SCCF RECON,ioos:station:SCCF:51:1,2011-07-08T20:00:00Z,26.5545,-82.1715,1.667,34.63,1111122 
SCCF RECON,ioos:station:SCCF:51:1,2011-07-08T21:00:00Z,26.5545,-82.1715,1.744,34.67,1111122 
SCCF RECON,ioos:station:SCCF:51:1,2011-07-08T22:00:00Z,26.5545,-82.1715,1.818,34.68,1111122 
SCCF RECON,ioos:station:SCCF:51:1,2011-07-08T23:00:00Z,26.5545,-82.1715,1.874,35.15,1111122 
SCCF RECON,ioos:station:SCCF:51:1,2011-07-09T00:00:00Z,26.5545,-82.1715,1.922,34.92,1111122 
SCCF RECON,ioos:station:SCCF:51:1,2011-07-09T01:00:00Z,26.5545,-82.1715,1.914,34.96,1111122 
SCCF RECON,ioos:station:SCCF:51:1,2011-07-09T02:00:00Z,26.5545,-82.1715,1.85,34.72,1111122 
SCCF RECON,ioos:station:SCCF:51:1,2011-07-09T03:00:00Z,26.5545,-82.1715,1.851,34.75,1111122 
SCCF RECON,ioos:station:SCCF:51:1,2011-07-09T04:00:00Z,26.5545,-82.1715,1.794,34.7,1111122 
SCCF RECON,ioos:station:SCCF:51:1,2011-07-09T05:00:00Z,26.5545,-82.1715,1.77,34.73,1111122 
SCCF RECON,ioos:station:SCCF:51:1,2011-07-09T06:00:00Z,26.5545,-82.1715,1.792,34.83,1111122 
SCCF RECON,ioos:station:SCCF:51:1,2011-07-09T07:00:00Z,26.5545,-82.1715,1.812,34.98,1111122 
SCCF RECON,ioos:station:SCCF:51:1,2011-07-09T08:00:00Z,26.5545,-82.1715,1.849,35.01,1111122 
SCCF RECON,ioos:station:SCCF:51:1,2011-07-09T09:00:00Z,26.5545,-82.1715,1.938,35.38,1111122 
SCCF RECON,ioos:station:SCCF:51:1,2011-07-09T10:00:00Z,26.5545,-82.1715,2.009,36.11,1111122 
SCCF RECON,ioos:station:SCCF:51:1,2011-07-09T11:00:00Z,26.5545,-82.1715,2.077,36.14,1111122 
SCCF RECON,ioos:station:SCCF:51:1,2011-07-09T12:00:00Z,26.5545,-82.1715,2.091,35.67,1111122 
SCCF RECON,ioos:station:SCCF:51:1,2011-07-09T13:00:00Z,26.5545,-82.1715,2.057,35.65,1111122 
SCCF RECON,ioos:station:SCCF:51:1,2011-07-09T14:00:00Z,26.5545,-82.1715,1.987,35.4,1111122 
SCCF RECON,ioos:station:SCCF:51:1,2011-07-09T15:00:00Z,26.5545,-82.1715,1.899,35.47,1111122 
SCCF RECON,ioos:station:SCCF:51:1,2011-07-09T16:00:00Z,26.5545,-82.1715,1.793,35.17,1111122 
SCCF RECON,ioos:station:SCCF:51:1,2011-07-09T17:00:00Z,26.5545,-82.1715,1.684,35.29,1111122 
SCCF RECON,ioos:station:SCCF:51:1,2011-07-09T18:00:00Z,26.5545,-82.1715,1.584,34.85,1111122 
SCCF RECON,ioos:station:SCCF:51:1,2011-07-09T19:00:00Z,26.5545,-82.1715,1.486,35.19,1111122 
SCCF RECON,ioos:station:SCCF:51:1,2011-07-09T20:00:00Z,26.5545,-82.1715,1.432,35.39,1111122 
SCCF RECON,ioos:station:SCCF:51:1,2011-07-09T21:00:00Z,26.5545,-82.1715,1.448,35.38,1111122 
SCCF RECON,ioos:station:SCCF:51:1,2011-07-09T22:00:00Z,26.5545,-82.1715,1.518,35.39,1111122 
SCCF RECON,ioos:station:SCCF:51:1,2011-07-09T23:00:00Z,26.5545,-82.1715,1.603,35.33,1111122 
SCCF RECON,ioos:station:SCCF:51:1,2011-07-10T00:00:00Z,26.5545,-82.1715,1.699,35.4,1111122 
SCCF RECON,ioos:station:SCCF:51:1,2011-07-10T01:00:00Z,26.5545,-82.1715,1.776,35.61,1111122 
SCCF RECON,ioos:station:SCCF:51:1,2011-07-10T02:00:00Z,26.5545,-82.1715,1.829,35.51,1111122 
SCCF RECON,ioos:station:SCCF:51:1,2011-07-10T03:00:00Z,26.5545,-82.1715,1.837,35.49,1111122 
SCCF RECON,ioos:station:SCCF:51:1,2011-07-10T04:00:00Z,26.5545,-82.1715,1.819,35.27,1111122 
SCCF RECON,ioos:station:SCCF:51:1,2011-07-10T05:00:00Z,26.5545,-82.1715,1.774,35.31,1111122 
SCCF RECON,ioos:station:SCCF:51:1,2011-07-10T06:00:00Z,26.5545,-82.1715,1.74,35.22,1111122 
SCCF RECON,ioos:station:SCCF:51:1,2011-07-10T07:00:00Z,26.5545,-82.1715,1.759,35.28,1111122 
SCCF RECON,ioos:station:SCCF:51:1,2011-07-10T08:00:00Z,26.5545,-82.1715,1.8,35.41,1111122 
SCCF RECON,ioos:station:SCCF:51:1,2011-07-10T09:00:00Z,26.5545,-82.1715,1.86,35.38,1111122 
SCCF RECON,ioos:station:SCCF:51:1,2011-07-10T10:00:00Z,26.5545,-82.1715,1.93,35.72,1111122 
SCCF RECON,ioos:station:SCCF:51:1,2011-07-10T11:00:00Z,26.5545,-82.1715,2.007,35.84,1111122 
SCCF RECON,ioos:station:SCCF:51:1,2011-07-10T12:00:00Z,26.5545,-82.1715,2.064,35.85,1111122 
SCCF RECON,ioos:station:SCCF:51:1,2011-07-10T13:00:00Z,26.5545,-82.1715,2.089,35.8,1111122 
SCCF RECON,ioos:station:SCCF:51:1,2011-07-10T14:00:00Z,26.5545,-82.1715,2.069,35.79,1111122 
SCCF RECON,ioos:station:SCCF:51:1,2011-07-10T15:00:00Z,26.5545,-82.1715,2.005,35.75,1111122 
SCCF RECON,ioos:station:SCCF:51:1,2011-07-10T16:00:00Z,26.5545,-82.1715,1.911,35.34,1111122 
SCCF RECON,ioos:station:SCCF:51:1,2011-07-10T17:00:00Z,26.5545,-82.1715,1.781,35.19,1111122 
SCCF RECON,ioos:station:SCCF:51:1,2011-07-10T18:00:00Z,26.5545,-82.1715,1.65,35.31,1111122 
SCCF RECON,ioos:station:SCCF:51:1,2011-07-10T19:00:00Z,26.5545,-82.1715,1.523,35.17,1111122 
SCCF RECON,ioos:station:SCCF:51:1,2011-07-10T20:00:00Z,26.5545,-82.1715,1.418,35.16,1111122 
SCCF RECON,ioos:station:SCCF:51:1,2011-07-10T21:00:00Z,26.5545,-82.1715,1.367,35.33,1111122 
SCCF RECON,ioos:station:SCCF:51:1,2011-07-10T22:00:00Z,26.5545,-82.1715,1.391,35.34,1111122 
SCCF RECON,ioos:station:SCCF:51:1,2011-07-10T23:00:00Z,26.5545,-82.1715,1.48,35.11,1111122 
SCCF RECON,ioos:station:SCCF:51:1,2011-07-11T00:00:00Z,26.5545,-82.1715,1.58,35.18,1111122 
SCCF RECON,ioos:station:SCCF:51:1,2011-07-11T01:00:00Z,26.5545,-82.1715,1.695,35.62,1111122 
SCCF RECON,ioos:station:SCCF:51:1,2011-07-11T02:00:00Z,26.5545,-82.1715,1.78,35.48,1111122 
SCCF RECON,ioos:station:SCCF:51:1,2011-07-11T03:00:00Z,26.5545,-82.1715,1.837,35.67,1111122 
SCCF RECON,ioos:station:SCCF:51:1,2011-07-11T04:00:00Z,26.5545,-82.1715,1.861,35.56,1111122 
SCCF RECON,ioos:station:SCCF:51:1,2011-07-11T05:00:00Z,26.5545,-82.1715,1.821,35.34,1111122 
SCCF RECON,ioos:station:SCCF:51:1,2011-07-11T06:00:00Z,26.5545,-82.1715,1.784,35.12,1111122 
SCCF RECON,ioos:station:SCCF:51:1,2011-07-11T07:00:00Z,26.5545,-82.1715,1.739,35.1,1111122 
SCCF RECON,ioos:station:SCCF:51:1,2011-07-11T08:00:00Z,26.5545,-82.1715,1.731,35.02,1111122 
SCCF RECON,ioos:station:SCCF:51:1,2011-07-11T09:00:00Z,26.5545,-82.1715,1.772,35.1,1111122 
SCCF RECON,ioos:station:SCCF:51:1,2011-07-11T10:00:00Z,26.5545,-82.1715,1.85,35.69,1111122 
SCCF RECON,ioos:station:SCCF:51:1,2011-07-11T11:00:00Z,26.5545,-82.1715,1.96,35.85,1111122 
SCCF RECON,ioos:station:SCCF:51:1,2011-07-11T12:00:00Z,26.5545,-82.1715,2.041,36.04,1111122 
SCCF RECON,ioos:station:SCCF:51:1,2011-07-11T13:00:00Z,26.5545,-82.1715,2.1,36.04,1111122 
SCCF RECON,ioos:station:SCCF:51:1,2011-07-11T14:00:00Z,26.5545,-82.1715,2.102,36.02,1111122 
SCCF RECON,ioos:station:SCCF:51:1,2011-07-11T15:00:00Z,26.5545,-82.1715,2.071,36.04,1111122 
SCCF RECON,ioos:station:SCCF:51:1,2011-07-11T16:00:00Z,26.5545,-82.1715,1.997,35.96,1111122 
SCCF RECON,ioos:station:SCCF:51:1,2011-07-11T17:00:00Z,26.5545,-82.1715,1.891,35.76,1111122 